GW1106 Weather Reports


time (UTC)temp
C
wind
direction
speed
KPH
gust
KPH
rain 1hr
cm
rain 24hr
cm
rain mn
cm
humidity
%
barometer
mb
20260508214552 20 215 6.4 11.3 0.00 0.00 0.00 55 1015.6
20260508214049 20 219 4.8 9.7 0.00 0.00 0.00 54 1015.7
20260508213546 20 215 9.7 11.3 0.00 0.00 0.00 53 1015.6
20260508213042 20 208 3.2 9.7 0.00 0.00 0.00 54 1015.5
20260508212538 20 234 12.9 14.5 0.00 0.00 0.00 52 1015.2
20260508212035 20 201 3.2 9.7 0.00 0.00 0.00 53 1015.5
20260508211531 20 228 4.8 9.7 0.00 0.00 0.00 54 1015.5
20260508211027 20 225 4.8 11.3 0.00 0.00 0.00 54 1015.3
20260508210524 20 201 6.4 6.4 0.00 0.00 0.00 54 1015.3
20260508210021 20 182 4.8 9.7 0.00 0.00 0.00 51 1015.3
20260508205518 20 213 9.7 11.3 0.00 0.00 0.00 51 1015.5
20260508205014 20 176 9.7 17.7 0.00 0.00 0.00 51 1015.5
20260508204511 20 238 8.0 14.5 0.00 0.00 0.00 51 1015.7
20260508204007 20 211 9.7 11.3 0.00 0.00 0.00 50 1015.7
20260508203503 20 246 9.7 12.9 0.00 0.00 0.00 50 1015.9
20260508202959 20 236 4.8 9.7 0.00 0.00 0.00 51 1015.9
20260508202456 20 289 3.2 6.4 0.00 0.00 0.00 47 1015.8
20260508201953 20 270 4.8 14.5 0.00 0.00 0.00 49 1015.8
20260508201450 20 205 6.4 11.3 0.00 0.00 0.00 49 1015.8
20260508200946 20 138 4.8 9.7 0.00 0.00 0.00 50 1015.9
20260508200444 20 222 9.7 14.5 0.00 0.00 0.00 50 1016.0
20260508195938 20 217 9.7 12.9 0.00 0.00 0.00 49 1016.2
20260508195436 20 226 8.0 14.5 0.00 0.00 0.00 50 1016.3
20260508194932 20 271 8.0 11.3 0.00 0.00 0.00 50 1016.4
20260508194429 21 177 8.0 11.3 0.00 0.00 0.00 46 1016.4
20260508193926 20 333 4.8 9.7 0.00 0.00 0.00 46 1016.2
20260508193423 20 234 11.3 12.9 0.00 0.00 0.00 48 1016.4
20260508192919 21 150 3.2 9.7 0.00 0.00 0.00 49 1016.5
20260508192416 20 208 4.8 11.3 0.00 0.00 0.00 50 1016.8
20260508191913 20 183 3.2 6.4 0.00 0.00 0.00 51 1016.9
20260508191411 20 199 11.3 16.1 0.00 0.00 0.00 47 1016.8
20260508190907 20 245 9.7 14.5 0.00 0.00 0.00 50 1016.9
20260508190404 20 171 3.2 11.3 0.00 0.00 0.00 49 1017.3
20260508185900 19 223 6.4 11.3 0.00 0.00 0.00 49 1017.3
20260508185358 20 258 8.0 16.1 0.00 0.00 0.00 49 1017.4
20260508184855 20 226 4.8 4.8 0.00 0.00 0.00 49 1017.1
20260508184353 20 258 4.8 9.7 0.00 0.00 0.00 48 1017.2
20260508183849 20 227 11.3 16.1 0.00 0.00 0.00 50 1017.3
20260508183346 19 160 1.6 12.9 0.00 0.00 0.00 49 1017.5
20260508182842 20 192 8.0 11.3 0.00 0.00 0.00 50 1017.6
20260508182339 20 227 6.4 12.9 0.00 0.00 0.00 50 1017.6
20260508181834 20 260 3.2 4.8 0.00 0.00 0.00 49 1017.8
20260508181331 19 226 3.2 9.7 0.00 0.00 0.00 51 1017.5
20260508180828 19 252 3.2 11.3 0.00 0.00 0.00 50 1017.9
20260508180325 20 255 8.0 12.9 0.00 0.00 0.00 53 1017.9
20260508175821 18 293 4.8 12.9 0.00 0.00 0.00 53 1018.1
20260508175318 19 235 4.8 4.8 0.00 0.00 0.00 54 1017.9
20260508174816 18 167 6.4 6.4 0.00 0.00 0.00 53 1017.8
20260508174313 18 132 0.0 9.7 0.00 0.00 0.00 51 1018.0
20260508173809 20 131 6.4 11.3 0.00 0.00 0.00 49 1018.0
20260508173306 19 243 6.4 12.9 0.00 0.00 0.00 48 1018.0
20260508172802 19 215 6.4 14.5 0.00 0.00 0.00 50 1018.2
20260508172259 19 221 8.0 14.5 0.00 0.00 0.00 53 1018.3
20260508171755 19 114 4.8 11.3 0.00 0.00 0.00 49 1018.5
20260508171252 19 234 4.8 11.3 0.00 0.00 0.00 54 1018.4
20260508170749 18 349 3.2 11.3 0.00 0.00 0.00 50 1018.4
20260508170247 18 263 9.7 12.9 0.00 0.00 0.00 52 1018.6
20260508165743 18 254 6.4 11.3 0.00 0.00 0.00 53 1018.6
20260508165241 19 214 6.4 6.4 0.00 0.00 0.00 51 1018.7
20260508164737 18 207 3.2 6.4 0.00 0.00 0.00 52 1018.8
20260508164233 18 201 12.9 14.5 0.00 0.00 0.00 52 1019.1
20260508163732 18 213 0.0 6.4 0.00 0.00 0.00 59 1019.1
20260508163229 18 134 1.6 14.5 0.00 0.00 0.00 51 1019.2
20260508162724 18 254 8.0 11.3 0.00 0.00 0.00 53 1019.3
20260508162222 17 112 1.6 9.7 0.00 0.00 0.00 53 1019.2
20260508161719 18 284 4.8 11.3 0.00 0.00 0.00 51 1019.1
20260508161216 17 270 6.4 9.7 0.00 0.00 0.00 54 1019.3
20260508160714 17 223 8.0 11.3 0.00 0.00 0.00 54 1019.3
20260508160212 17 241 9.7 12.9 0.00 0.00 0.00 54 1019.5
20260508155708 18 221 6.4 11.3 0.00 0.00 0.00 53 1019.6
20260508155205 18 148 1.6 6.4 0.00 0.00 0.00 52 1019.5
20260508154702 17 187 3.2 6.4 0.00 0.00 0.00 55 1019.6
20260508154159 17 148 0.0 3.2 0.00 0.00 0.00 57 1019.8
20260508153656 17 238 6.4 12.9 0.00 0.00 0.00 58 1019.6
20260508153153 18 130 3.2 6.4 0.00 0.00 0.00 56 1019.5
20260508152649 17 179 3.2 6.4 0.00 0.00 0.00 57 1019.7
20260508152145 17 211 4.8 9.7 0.00 0.00 0.00 55 1019.6
20260508151642 17 157 0.0 3.2 0.00 0.00 0.00 57 1019.7
20260508151138 17 145 0.0 6.4 0.00 0.00 0.00 55 1019.6
20260508150636 18 279 6.4 9.7 0.00 0.00 0.00 57 1019.6
20260508150132 17 187 1.6 4.8 0.00 0.00 0.00 56 1019.7
20260508145628 17 134 1.6 4.8 0.00 0.00 0.00 55 1019.4
20260508145125 18 284 3.2 3.2 0.00 0.00 0.00 53 1019.7
20260508144622 18 60 3.2 4.8 0.00 0.00 0.00 57 1019.7
20260508144120 18 118 1.6 4.8 0.00 0.00 0.00 57 1019.8
20260508143617 17 138 0.0 3.2 0.00 0.00 0.00 56 1019.9
20260508143114 18 60 3.2 4.8 0.00 0.00 0.00 58 1019.8
20260508142610 17 72 3.2 3.2 0.00 0.00 0.00 54 1019.8
20260508142107 17 122 1.6 1.6 0.00 0.00 0.00 54 1019.8
20260508141604 16 107 0.0 3.2 0.00 0.00 0.00 55 1019.8
20260508141101 16 227 3.2 9.7 0.00 0.00 0.00 60 1019.8
20260508140558 16 208 3.2 9.7 0.00 0.00 0.00 55 1020.0
20260508140055 16 167 0.0 0.0 0.00 0.00 0.00 56 1020.0
20260508135550 16 236 6.4 9.7 0.00 0.00 0.00 55 1020.0
20260508135047 16 317 3.2 6.4 0.00 0.00 0.00 57 1020.0
20260508134544 16 292 4.8 4.8 0.00 0.00 0.00 55 1019.9
20260508134041 16 151 0.0 3.2 0.00 0.00 0.00 55 1019.9
20260508133537 17 129 0.0 1.6 0.00 0.00 0.00 57 1019.9
20260508133035 16 100 1.6 3.2 0.00 0.00 0.00 58 1019.9
20260508132533 17 120 0.0 1.6 0.00 0.00 0.00 56 1020.0
20260508132029 16 123 0.0 1.6 0.00 0.00 0.00 56 1020.0
20260508131524 16 128 0.0 1.6 0.00 0.00 0.00 59 1019.8
20260508131021 16 252 0.0 1.6 0.00 0.00 0.00 66 1019.8
20260508130519 15 112 1.6 3.2 0.00 0.00 0.00 72 1019.7
20260508130015 15 44 3.2 3.2 0.00 0.00 0.00 70 1019.8
20260508125510 14 80 3.2 3.2 0.00 0.00 0.00 74 1019.5
20260508125008 14 154 0.0 0.0 0.00 0.00 0.00 80 1019.6
20260508124506 13 156 0.0 0.0 0.00 0.00 0.00 82 1019.8
20260508124003 13 150 0.0 0.0 0.00 0.00 0.00 85 1019.6
20260508123502 12 146 0.0 0.0 0.00 0.00 0.00 87 1019.6
20260508122958 11 166 0.0 0.0 0.00 0.00 0.00 89 1019.3
20260508122455 11 165 0.0 0.0 0.00 0.00 0.00 91 1019.5
20260508121952 10 158 0.0 0.0 0.00 0.00 0.00 92 1019.2
20260508121450 10 146 0.0 0.0 0.00 0.00 0.00 96 1019.4
20260508120948 10 147 0.0 0.0 0.00 0.00 0.00 98 1019.5
20260508120445 10 144 0.0 0.0 0.00 0.00 0.00 98 1019.3
20260508115943 10 119 0.0 0.0 0.00 0.00 0.00 99 1019.1
20260508115440 8 128 0.0 0.0 0.00 0.00 0.00 99 1019.0
20260508114936 10 125 0.0 0.0 0.00 0.00 0.00 99 1019.1
20260508114434 8 141 0.0 0.0 0.00 0.00 0.00 99 1018.8
20260508113930 7 142 0.0 0.0 0.00 0.00 0.00 99 1019.0
20260508113428 6 115 0.0 0.0 0.00 0.00 0.00 99 1018.8
20260508112925 7 114 0.0 0.0 0.00 0.00 0.00 99 1018.6
20260508112422 6 114 0.0 0.0 0.00 0.00 0.00 99 1018.5
20260508111918 6 127 0.0 0.0 0.00 0.00 0.00 99 1018.5
20260508111415 6 115 0.0 0.0 0.00 0.00 0.00 99 1018.6
20260508110913 6 102 0.0 0.0 0.00 0.00 0.00 99 1018.3
20260508110411 6 135 0.0 0.0 0.00 0.00 0.00 99 1018.1
20260508105910 6 135 0.0 0.0 0.00 0.00 0.00 99 1017.9
20260508105406 6 129 0.0 0.0 0.00 0.00 0.00 99 1018.1
20260508104904 6 126 0.0 0.0 0.00 0.00 0.00 99 1018.0
20260508104401 6 136 0.0 0.0 0.00 0.00 0.00 99 1017.8
20260508103858 6 104 0.0 0.0 0.00 0.00 0.00 99 1017.8
20260508103354 6 150 0.0 0.0 0.00 0.00 0.00 99 1017.8
20260508102852 6 151 0.0 0.0 0.00 0.00 0.00 99 1017.7
20260508102350 6 151 0.0 0.0 0.00 0.00 0.00 99 1017.8
20260508101847 6 151 0.0 0.0 0.00 0.00 0.00 99 1017.3
20260508101344 6 114 0.0 0.0 0.00 0.00 0.00 99 1017.4
20260508100842 6 114 0.0 0.0 0.00 0.00 0.00 99 1017.4
20260508100341 6 123 0.0 0.0 0.00 0.00 0.00 99 1017.1
20260508095835 6 123 0.0 0.0 0.00 0.00 0.00 99 1017.2
20260508095333 6 114 0.0 0.0 0.00 0.00 0.00 99 1017.0
20260508094830 6 113 0.0 0.0 0.00 0.00 0.00 99 1017.1
20260508094327 6 112 0.0 0.0 0.00 0.00 0.00 99 1017.1
20260508093824 6 146 0.0 0.0 0.00 0.00 0.00 99 1017.2
20260508093322 6 146 0.0 0.0 0.00 0.00 0.00 99 1017.2
20260508092819 6 158 0.0 0.0 0.00 0.00 0.00 99 1017.1
20260508092317 6 131 0.0 0.0 0.00 0.00 0.00 99 1017.2
20260508091815 6 128 0.0 0.0 0.00 0.00 0.00 99 1017.1
20260508091311 6 123 0.0 0.0 0.00 0.00 0.00 99 1017.1
20260508090809 6 105 0.0 0.0 0.00 0.00 0.00 98 1017.0
20260508090307 7 142 0.0 0.0 0.00 0.00 0.00 99 1017.1
20260508085802 7 118 0.0 0.0 0.00 0.00 0.00 99 1016.9
20260508085300 7 100 3.2 3.2 0.00 0.00 0.00 98 1016.9
20260508084755 7 119 0.0 0.0 0.00 0.00 0.00 98 1016.8
20260508084253 7 132 0.0 0.0 0.00 0.00 0.00 98 1016.8
20260508083750 7 131 0.0 0.0 0.00 0.00 0.00 98 1016.7
20260508083248 7 132 0.0 0.0 0.00 0.00 0.00 98 1016.5
20260508082747 7 132 0.0 0.0 0.00 0.00 0.00 98 1016.8
20260508082246 7 132 0.0 0.0 0.00 0.00 0.00 98 1016.8
20260508081743 7 131 0.0 0.0 0.00 0.00 0.00 98 1016.7
20260508081239 7 131 0.0 0.0 0.00 0.00 0.00 98 1016.7
20260508080736 7 145 0.0 0.0 0.00 0.00 0.00 98 1016.7
20260508080235 7 145 0.0 0.0 0.00 0.00 0.00 98 1016.5
20260508075731 7 145 0.0 0.0 0.00 0.00 0.00 98 1016.5
20260508075228 7 144 0.0 0.0 0.00 0.00 0.00 98 1016.5
20260508074725 7 124 0.0 0.0 0.00 0.00 0.00 97 1016.4
20260508074223 7 139 0.0 0.0 0.00 0.00 0.00 97 1016.5
20260508073719 7 139 0.0 0.0 0.00 0.00 0.00 97 1016.4
20260508073218 7 139 0.0 0.0 0.00 0.00 0.00 97 1016.3
20260508072713 7 138 0.0 0.0 0.00 0.00 0.00 97 1016.5
20260508072210 7 131 0.0 0.0 0.00 0.00 0.00 97 1016.4
20260508071707 8 109 0.0 1.6 0.00 0.00 0.00 97 1016.4
20260508071206 7 148 0.0 0.0 0.00 0.00 0.00 97 1016.1
20260508070703 7 115 0.0 1.6 0.00 0.00 0.00 97 1016.2
20260508070201 8 90 1.6 1.6 0.00 0.00 0.00 96 1016.3
20260508065658 8 110 0.0 0.0 0.00 0.00 0.00 96 1016.2
20260508065156 8 123 0.0 0.0 0.00 0.00 0.00 96 1016.1
20260508064654 8 123 0.0 0.0 0.00 0.00 0.00 96 1016.2
20260508064152 8 123 0.0 0.0 0.00 0.00 0.00 96 1016.2
20260508063649 8 123 0.0 0.0 0.00 0.00 0.00 95 1015.9
20260508063147 8 123 0.0 0.0 0.00 0.00 0.00 95 1016.0
20260508062644 8 120 0.0 0.0 0.00 0.00 0.00 95 1016.2
20260508062140 8 128 0.0 0.0 0.00 0.00 0.00 95 1016.1
20260508061638 8 147 0.0 0.0 0.00 0.00 0.00 95 1016.0
20260508061135 8 109 0.0 1.6 0.00 0.00 0.00 94 1015.9
20260508060632 9 138 1.6 1.6 0.00 0.00 0.00 94 1016.0
20260508060129 9 89 1.6 3.2 0.00 0.00 0.00 94 1016.2
20260508055624 9 145 0.0 0.0 0.00 0.00 0.00 94 1016.1
20260508055121 9 162 1.6 3.2 0.00 0.00 0.00 94 1016.1
20260508054618 9 142 0.0 0.0 0.00 0.00 0.00 93 1016.3
20260508054116 9 122 0.0 0.0 0.00 0.00 0.00 93 1016.2
20260508053612 9 189 0.0 0.0 0.00 0.00 0.00 93 1016.2
20260508053110 9 134 0.0 0.0 0.00 0.00 0.00 92 1016.1
20260508052607 10 191 0.0 3.2 0.00 0.00 0.00 92 1016.1
20260508052104 9 62 1.6 3.2 0.00 0.00 0.00 92 1016.0
20260508051600 10 187 1.6 3.2 0.00 0.00 0.00 91 1015.9
20260508051056 10 134 0.0 0.0 0.00 0.00 0.00 90 1015.9
20260508050552 10 164 1.6 3.2 0.00 0.00 0.00 91 1015.9
20260508050050 10 188 3.2 3.2 0.00 0.00 0.00 89 1015.9
20260508045546 10 323 1.6 3.2 0.00 0.00 0.00 88 1016.1
20260508045044 11 190 0.0 0.0 0.00 0.00 0.00 84 1015.8
20260508044541 11 194 1.6 4.8 0.00 0.00 0.00 78 1015.8
20260508044036 11 187 4.8 4.8 0.00 0.00 0.00 83 1015.5
20260508043533 11 161 0.0 0.0 0.00 0.00 0.00 84 1015.7
20260508043031 11 157 0.0 0.0 0.00 0.00 0.00 79 1015.8
20260508042527 12 152 0.0 0.0 0.00 0.00 0.00 78 1015.6
20260508042025 12 128 0.0 0.0 0.00 0.00 0.00 78 1015.3
20260508041521 11 127 0.0 0.0 0.00 0.00 0.00 79 1015.6
20260508041018 11 128 0.0 0.0 0.00 0.00 0.00 81 1015.6
20260508040515 11 128 0.0 0.0 0.00 0.00 0.00 81 1015.5
20260508040012 11 127 0.0 0.0 0.00 1.19 1.19 82 1015.6
20260508035509 11 127 0.0 0.0 0.00 1.19 1.19 82 1015.6
20260508035006 12 131 0.0 0.0 0.00 1.19 1.19 82 1015.7
20260508034503 12 121 0.0 0.0 0.00 1.19 1.19 78 1015.7
20260508034000 12 94 0.0 0.0 0.00 1.19 1.19 76 1015.6
20260508033458 12 131 0.0 0.0 0.00 1.19 1.19 78 1015.6
20260508032955 12 27 1.6 3.2 0.00 1.19 1.19 77 1015.7
20260508032452 12 74 0.0 3.2 0.00 1.19 1.19 77 1015.5
20260508031949 12 111 0.0 3.2 0.00 1.19 1.19 78 1015.6
20260508031446 12 121 0.0 0.0 0.00 1.19 1.19 79 1015.7
20260508030942 12 112 0.0 0.0 0.00 1.19 1.19 79 1015.6
20260508030439 12 97 0.0 1.6 0.00 1.19 1.19 78 1015.5
20260508025936 12 122 0.0 0.0 0.00 1.19 1.19 79 1015.3
20260508025433 12 126 0.0 1.6 0.00 1.19 1.19 77 1015.5
20260508024930 12 121 0.0 0.0 0.00 1.19 1.19 76 1015.5
20260508024426 12 124 0.0 0.0 0.00 1.19 1.19 75 1015.2
20260508023923 13 116 0.0 0.0 0.00 1.19 1.19 72 1015.3
20260508023420 13 115 0.0 0.0 0.00 1.19 1.19 71 1015.3
20260508022917 13 112 0.0 0.0 0.00 1.19 1.19 70 1015.0
20260508022412 13 98 0.0 1.6 0.00 1.19 1.19 71 1015.1
20260508021910 13 95 0.0 1.6 0.00 1.19 1.19 71 1015.0
20260508021406 13 109 0.0 1.6 0.00 1.19 1.19 72 1015.0
20260508020901 13 48 1.6 3.2 0.00 1.19 1.19 70 1014.9
20260508020400 13 111 1.6 3.2 0.00 1.19 1.19 70 1014.8
20260508015856 13 118 0.0 0.0 0.00 1.19 1.19 69 1014.8
20260508015354 13 118 0.0 0.0 0.00 1.19 1.19 69 1014.6
20260508014850 13 118 0.0 0.0 0.00 1.19 1.19 68 1014.3
20260508014348 13 96 1.6 4.8 0.00 1.19 1.19 67 1014.5
20260508013843 13 73 1.6 3.2 0.00 1.19 1.19 69 1014.3
20260508013340 14 100 1.6 3.2 0.00 1.19 1.19 69 1014.3
20260508012837 14 101 1.6 3.2 0.00 1.19 1.19 68 1014.3
20260508012334 14 105 0.0 3.2 0.00 1.19 1.19 68 1014.1
20260508011832 14 124 3.2 3.2 0.00 1.19 1.19 68 1013.7
20260508011330 14 107 1.6 3.2 0.00 1.19 1.19 67 1013.7
20260508010826 15 110 0.0 1.6 0.00 1.19 1.19 67 1013.8
20260508010324 15 68 0.0 4.8 0.00 1.19 1.19 65 1013.6
20260508005821 15 83 3.2 3.2 0.00 1.19 1.19 65 1013.4
20260508005318 15 49 0.0 1.6 0.00 1.19 1.19 66 1013.5
20260508004814 15 36 1.6 3.2 0.00 1.19 1.19 65 1013.4
20260508004310 15 146 3.2 3.2 0.00 1.19 1.19 65 1013.4
20260508003806 15 72 3.2 3.2 0.00 1.19 1.19 64 1013.2
20260508003259 15 124 0.0 11.3 0.00 1.19 1.19 66 1013.2
20260508002755 15 63 4.8 6.4 0.00 1.19 1.19 66 1013.0
20260508002252 16 24 3.2 6.4 0.00 1.19 1.19 67 1012.8
20260508001748 16 46 1.6 6.4 0.00 1.19 1.19 67 1012.7
20260508001244 16 84 1.6 4.8 0.00 1.19 1.19 67 1012.5
20260508000740 16 79 1.6 1.6 0.00 1.19 1.19 68 1012.4
20260508000238 16 67 3.2 9.7 0.00 1.19 1.19 67 1012.2
20260507235734 16 13 1.6 4.8 0.00 1.19 1.19 66 1012.2
20260507235232 17 24 4.8 4.8 0.00 1.19 1.19 66 1012.0
20260507234728 17 316 4.8 12.9 0.00 1.19 1.19 64 1012.2
20260507234225 17 25 4.8 6.4 0.00 1.19 1.19 64 1012.2
20260507233721 18 35 3.2 9.7 0.00 1.19 1.19 63 1012.0
20260507233220 18 70 3.2 4.8 0.00 1.19 1.19 64 1012.0
20260507232716 18 141 4.8 9.7 0.00 1.19 1.19 63 1011.5
20260507232214 18 66 3.2 6.4 0.00 1.19 1.19 63 1011.5
20260507231710 18 26 8.0 12.9 0.00 1.19 1.19 62 1011.7
20260507231207 19 98 3.2 11.3 0.00 1.19 1.19 63 1011.6
20260507230704 19 54 1.6 6.4 0.00 1.19 1.19 64 1011.6
20260507230201 19 18 3.2 6.4 0.00 1.19 1.19 63 1011.9
20260507225700 19 359 4.8 9.7 0.00 1.19 1.19 62 1011.7
20260507225157 20 32 6.4 20.9 0.00 1.19 1.19 63 1011.1
20260507224653 20 84 4.8 9.7 0.00 1.19 1.19 62 1011.1
20260507224150 20 126 1.6 9.7 0.00 1.19 1.19 63 1011.2
20260507223646 20 70 0.0 4.8 0.00 1.19 1.19 63 1010.9
20260507223143 21 51 1.6 11.3 0.00 1.19 1.19 62 1010.6
20260507222640 21 45 6.4 9.7 0.00 1.19 1.19 63 1010.6
20260507222136 21 28 4.8 6.4 0.00 1.19 1.19 62 1010.3
20260507221632 22 98 1.6 6.4 0.00 1.19 1.19 62 1010.0
20260507221129 22 83 1.6 3.2 0.00 1.19 1.19 64 1010.0
20260507220626 22 114 0.0 0.0 0.00 1.19 1.19 65 1010.0
20260507220124 22 124 0.0 3.2 0.00 1.19 1.19 64 1009.8
20260507215620 23 61 0.0 6.4 0.00 1.19 1.19 64 1009.8
20260507215118 23 69 0.0 6.4 0.00 1.19 1.19 65 1009.9